ジェディキ彗星

269P/Jedicke (1995)

English version
Home page
Updated on February 10, 2013

---------------------------------------------------------------------

・ プロフィール

符号 269P/1996 A1
発見日 1996年1月14日
発見光度 17.0等
発見者 Victoria Jedicke, Robert Jedicke (Lunar and Planetary Laboratory)

・ 軌道要素

Epoch 1995 Aug. 31.0 TT = JDT 2449960.5
T 1995 Aug. 15.86832 TT                                 MPC
q   4.0551262            (2000.0)            P               Q
n   0.05105234     Peri.  224.12083     -0.39188057     -0.91367977
a   7.1965707      Node   249.22130     +0.87280629     -0.33216213
e   0.4365196      Incl.    6.62033     +0.29092748     -0.23421698
P  19.31
From 326 observations 1993 Oct. 12-2012 Sept. 25, mean residual 0".59.

・ 星図

・ 1995年 1月 3日〜1997年 8月20日

・ 光度変化

        m1 =  4.2 + 5 logΔ + 15.0 log r

---------------------------------------------------------------------

軌道要素はM.P.E.C. 2012-T07に掲載されたものです。
星図は StellaNavigator Ver.2.0 for Windows (アストロアーツ編著 / アスキー出版局刊) で作成したものです。
光度グラフはComet for Windowsで作成したものです。

---------------------------------------------------------------------

Copyright(C) Seiichi Yoshida (comet@aerith.net). All rights reserved.